Wind_Speed
25 26 26 26 26 27 29 29 30 30 31 31 31 31 31 31 32 33 33 33 31 30 29 28 26 25 25 23 23 25 27 29 29 25 24 23 20 17 15 13 13 12 11 9 9 9 9 10 10 11 10 10 11 12 12 13 14 14 15 16 17 18 20 21 22 21 20 20 20 20 21 21 21 22 22 22 22 24 24 24 24 24 24 25 26
24 24 24 25 26 27 28 29 30 31 32 32 32 32 33 33 33 34 35 35 33 32 31 31 30 30 29 28 28 30 31 32 30 26 23 23 21 18 16 15 14 13 11 10 9 9 9 10 11 11 11 12 13 13 14 14 15 15 16 17 18 19 20 21 21 20 19 19 19 20 21 22 23 23 23 22 22 24 26 25 25 24 24 25 26
24 23 24 25 26 26 27 28 29 30 32 33 33 33 34 34 35 36 36 37 36 34 34 35 34 34 33 33 33 32 32 31 29 27 24 22 21 20 18 16 15 13 12 10 9 9 9 10 11 11 12 13 15 15 15 15 16 16 17 18 19 19 20 21 20 20 19 18 19 20 21 22 24 24 25 24 22 23 25 26 26 25 25 25 25
24 24 24 25 26 26 27 28 29 30 32 33 32 33 34 36 36 37 37 37 35 35 36 38 38 36 35 35 36 35 35 33 30 29 27 23 22 21 19 17 15 13 12 10 10 10 10 11 12 12 13 14 16 16 15 16 17 17 17 18 19 19 19 20 21 21 21 20 19 20 21 22 23 24 26 27 26 26 26 27 26 25 24 24 25
25 25 25 26 26 26 26 27 28 29 31 31 31 32 35 36 37 36 36 36 34 35 37 39 39 38 37 37 38 37 36 35 32 31 28 24 22 21 18 17 16 14 13 11 10 11 11 12 13 14 15 15 16 16 17 17 17 18 18 18 19 19 20 21 22 23 23 21 20 20 21 22 22 23 24 27 29 30 29 28 27 26 26 26 27
26 26 26 27 27 26 26 25 25 25 27 29 30 32 34 35 36 35 34 35 34 34 36 39 39 38 37 39 41 39 37 37 34 32 28 24 22 21 18 17 17 16 15 13 12 12 13 14 14 15 16 17 17 18 20 19 19 18 18 19 19 21 21 22 22 23 24 23 21 20 20 22 23 23 23 26 28 30 31 30 29 28 28 28 29
28 28 27 28 29 27 26 24 23 25 26 28 29 31 33 35 35 33 33 34 34 32 33 37 39 38 37 40 43 42 40 39 36 33 29 25 24 22 19 18 18 17 16 15 14 14 15 15 15 16 17 18 18 20 21 20 19 19 19 20 21 22 22 23 23 24 25 25 24 23 22 22 23 24 25 26 28 29 30 30 30 29 29 30 30
30 31 29 29 30 28 25 23 24 26 28 29 31 32 33 35 35 33 33 35 35 33 33 34 36 38 38 39 42 43 41 39 36 33 29 27 26 24 21 20 19 18 17 16 15 15 15 16 17 18 19 19 20 22 22 21 21 20 20 20 22 23 23 24 24 25 25 25 25 25 25 25 24 25 26 27 28 28 29 30 31 31 31 31 31
32 32 30 29 29 27 26 25 25 27 29 31 32 32 34 36 36 34 35 37 36 36 35 34 35 36 37 38 39 41 41 38 35 32 29 28 28 25 22 21 20 19 18 17 16 15 15 16 18 20 21 22 22 23 24 24 24 22 21 21 22 23 24 24 25 25 26 26 26 27 27 27 26 27 28 28 29 29 30 31 32 32 32 33 32
31 30 28 27 27 26 27 27 27 28 30 32 33 33 35 37 37 36 38 38 38 37 37 36 36 35 36 37 37 38 39 37 34 32 29 29 29 26 23 22 21 19 19 17 16 16 16 18 20 22 23 24 25 25 26 26 26 25 23 23 24 24 24 24 24 25 26 28 29 29 29 29 29 29 30 30 31 31 31 32 32 32 33 35 35
28 27 26 25 25 26 27 27 28 29 31 32 34 35 37 38 38 38 39 39 39 38 37 36 36 36 36 36 36 37 38 35 32 31 30 29 29 28 24 23 22 21 19 18 17 17 18 20 22 23 25 26 27 27 27 27 27 26 25 25 26 26 26 26 26 26 27 29 30 31 32 32 31 31 32 32 33 32 32 32 33 34 35 36 37
26 26 25 25 26 27 28 28 30 31 31 33 35 37 38 38 39 39 38 38 39 38 36 34 34 35 35 35 35 35 37 35 31 30 30 29 29 28 26 25 24 22 21 19 18 18 20 21 23 25 27 28 29 29 28 28 28 28 27 28 27 27 28 28 28 29 29 30 31 32 33 34 34 33 33 33 34 33 33 34 35 36 36 37 38
28 28 28 28 28 28 28 29 30 31 31 33 34 35 36 36 37 38 36 36 37 36 34 32 32 34 34 33 33 34 36 36 32 30 30 30 29 28 27 26 25 23 22 21 20 20 21 23 24 25 27 28 29 29 29 30 30 31 30 29 29 29 29 29 30 31 31 31 33 33 33 34 35 35 34 34 34 34 35 36 37 38 37 37 39
30 30 30 30 29 29 29 29 29 29 29 30 31 32 32 32 33 34 33 34 35 34 33 32 31 33 33 33 34 35 36 37 33 30 30 30 29 28 28 27 26 24 23 22 21 21 22 24 25 26 26 27 28 30 31 31 32 34 33 31 30 30 29 28 30 33 33 32 34 34 34 35 37 36 35 33 34 35 37 39 39 39 38 39 41
32 31 31 30 29 28 27 26 26 26 26 26 27 27 27 27 29 31 32 33 34 34 34 34 32 32 33 33 35 36 37 38 36 32 31 30 29 28 28 27 25 24 22 21 21 22 23 25 25 25 26 27 29 31 31 31 34 35 34 33 33 31 30 30 31 32 32 32 34 35 35 35 36 36 35 33 34 35 38 39 40 40 40 41 42
32 31 29 28 26 24 24 24 24 23 23 23 23 24 24 25 27 29 31 33 33 34 34 33 32 32 33 33 36 38 39 39 37 33 31 30 30 29 28 26 25 23 22 21 21 22 24 25 25 25 25 27 29 30 30 31 34 34 33 33 33 32 31 32 32 32 32 33 34 34 34 33 34 35 35 34 34 35 37 39 40 40 41 43 43
32 29 27 25 24 23 23 22 21 21 21 21 21 23 24 25 27 29 30 32 34 35 35 33 33 33 31 31 34 39 41 40 35 32 32 32 32 31 30 27 25 24 22 21 21 23 24 23 22 22 23 24 27 29 29 30 32 33 32 33 33 32 31 31 32 32 32 33 33 33 33 33 33 33 33 33 35 36 38 40 40 40 41 42 42
30 28 26 25 24 23 21 21 20 20 20 20 21 22 23 24 27 28 29 31 34 35 35 35 35 32 30 32 37 40 40 38 34 33 34 35 35 35 32 28 25 24 23 22 22 22 22 21 20 21 23 25 26 28 29 29 30 31 31 32 32 32 30 30 31 32 31 31 30 30 31 32 31 31 31 32 34 36 38 40 40 40 41 40 39
29 28 27 25 23 22 20 20 20 20 20 20 20 21 22 23 26 27 28 31 33 35 37 37 34 32 31 36 40 40 37 34 34 37 39 39 39 37 33 27 23 23 23 23 23 21 19 20 21 22 24 26 28 29 30 30 30 30 31 31 32 31 29 28 31 32 32 31 30 30 31 31 31 31 31 32 34 36 38 38 39 39 38 36 36
29 27 25 22 21 20 20 20 20 20 20 19 19 21 22 23 25 27 29 31 33 36 37 37 35 33 31 33 37 38 35 33 36 40 42 41 38 36 33 26 23 24 24 22 21 19 19 21 25 26 26 27 30 31 31 31 31 31 32 32 32 31 30 29 30 31 31 32 33 32 32 32 32 32 33 34 35 36 36 37 37 37 35 33 33
26 23 21 20 20 20 20 20 20 19 19 18 19 21 22 24 26 27 29 31 34 36 36 37 37 33 29 30 35 36 35 35 38 42 43 38 33 33 32 27 25 27 25 20 17 18 22 27 30 30 28 29 31 32 32 32 32 32 32 32 32 31 31 31 31 32 32 32 32 32 31 31 32 33 34 35 35 35 36 36 36 35 34 34 34
20 19 18 19 20 20 20 20 20 19 19 19 20 22 23 25 27 29 29 31 33 35 34 35 36 33 30 32 35 34 33 34 37 41 40 34 29 29 28 26 25 26 24 20 20 25 30 32 31 29 29 31 33 34 33 33 32 32 32 32 32 31 31 31 31 31 32 31 32 32 31 31 32 33 34 34 35 35 36 35 34 34 36 37 37
20 19 19 22 23 21 20 20 20 20 21 21 23 24 25 27 29 29 29 30 31 32 31 30 33 33 33 34 35 32 30 32 35 38 37 31 27 25 24 24 25 23 22 24 28 31 31 29 27 28 31 33 35 35 34 33 32 32 32 32 32 31 31 31 30 30 30 31 32 32 32 32 32 32 33 34 35 35 35 34 34 35 37 38 38
21 22 25 26 24 20 19 20 21 22 23 25 26 28 28 29 29 28 28 28 29 30 29 28 30 32 32 33 31 27 28 32 36 36 33 28 24 23 23 24 25 24 25 29 32 30 26 25 27 30 33 34 35 35 35 33 32 32 32 32 32 31 30 30 29 29 30 31 32 32 31 30 30 31 33 34 34 33 33 33 33 34 34 35 36
22 26 28 26 22 19 20 21 23 24 25 26 28 29 29 28 27 27 28 28 27 28 28 28 29 31 32 31 28 25 27 33 35 33 29 24 22 21 23 25 26 27 29 31 29 26 24 25 29 32 34 36 36 36 35 34 33 32 32 31 31 30 30 29 29 29 29 29 29 29 29 30 31 31 32 33 32 31 32 33 33 33 34 34 35
29 29 28 25 23 22 22 23 23 24 25 26 27 27 27 27 27 28 28 27 26 26 26 27 28 29 28 28 27 27 29 32 32 29 25 21 20 21 24 26 27 29 30 29 27 25 25 27 30 33 35 36 36 36 36 34 32 30 29 28 28 27 27 27 27 27 28 28 28 29 29 30 30 30 30 31 30 31 32 34 34 34 34 34 35
30 27 25 24 23 22 22 22 23 23 24 25 25 26 27 27 28 28 26 25 25 25 26 28 29 27 23 24 27 28 28 28 27 24 20 20 21 21 23 25 28 29 29 27 26 26 27 28 31 34 36 36 36 36 34 31 28 27 26 26 25 24 23 25 26 27 28 29 29 29 28 28 28 29 29 30 30 31 32 33 34 33 33 33 33
26 25 24 23 22 21 21 22 23 24 25 25 24 25 26 27 27 27 26 25 25 26 27 28 28 25 22 23 26 26 24 22 21 19 18 19 20 20 22 27 29 28 27 26 26 28 30 31 34 35 36 36 35 33 30 28 26 25 24 24 24 23 23 26 28 28 27 27 27 26 26 26 27 28 29 30 30 31 32 32 32 31 30 30 30
23 23 23 23 21 20 21 22 23 25 25 23 23 24 25 26 26 26 24 24 24 26 27 27 26 25 25 26 26 24 20 17 16 16 17 19 20 22 26 28 27 26 26 26 28 30 33 37 39 38 35 34 31 28 26 26 24 24 25 24 24 25 28 28 27 26 25 24 24 24 25 26 27 28 29 30 31 31 31 30 29 28 27 26 26
21 21 21 22 21 21 22 23 24 24 24 23 23 23 25 26 26 23 21 21 24 27 28 27 27 26 26 25 24 20 17 16 16 17 19 22 24 27 28 27 25 26 26 26 28 32 35 38 39 36 33 30 27 25 24 24 23 23 24 24 24 27 30 29 26 24 23 23 23 24 25 26 27 28 29 30 30 29 28 26 25 24 24 24 24
20 21 21 22 21 21 22 23 23 23 23 22 23 23 25 25 24 20 19 20 23 26 28 28 27 26 25 22 20 18 17 19 20 21 23 26 28 29 28 27 26 26 26 27 30 33 35 36 34 32 30 27 24 23 24 24 23 23 24 26 29 30 29 27 25 24 24 25 25 25 26 27 28 28 29 29 28 26 24 22 22 22 22 23 24
20 22 23 22 20 21 21 22 22 23 22 21 22 23 23 23 21 19 18 20 21 24 27 29 29 27 23 20 19 19 20 22 23 24 26 28 29 28 27 26 26 26 28 30 33 34 35 34 31 28 26 25 23 22 23 23 24 26 28 30 31 30 27 26 25 24 25 26 26 26 26 27 27 27 28 26 24 22 20 20 20 21 21 22 23
19 21 21 20 19 20 21 22 22 22 21 21 21 21 22 21 20 18 18 19 20 22 26 27 26 23 19 18 20 22 23 24 25 26 28 29 29 27 26 25 26 28 30 32 34 35 34 31 28 25 24 23 22 23 24 25 26 28 30 30 28 26 26 26 26 24 23 24 25 26 26 26 26 26 25 22 20 19 19 19 20 21 22 23 23
18 19 20 20 21 21 21 21 21 20 19 19 19 20 20 18 15 14 14 13 14 18 21 21 20 19 18 19 21 23 24 26 27 29 29 29 27 25 25 26 28 30 32 34 34 33 31 28 25 23 22 22 23 24 25 27 28 28 27 26 24 24 24 24 24 23 22 24 25 25 25 25 25 24 21 18 18 18 18 19 21 22 23 24 24
19 20 20 20 19 19 19 18 17 17 16 15 16 17 16 13 11 11 10 9 10 14 16 17 17 18 19 20 22 24 26 28 29 29 29 26 24 24 25 27 30 32 34 34 33 30 27 25 24 23 22 23 24 24 24 25 26 25 24 24 24 23 22 22 22 23 24 25 25 25 25 24 22 20 18 16 17 17 18 20 22 22 23 24 24
19 20 19 17 15 15 15 14 14 14 14 14 15 15 13 11 11 11 11 10 10 12 14 15 17 19 21 23 24 26 27 27 27 27 26 24 24 25 26 28 30 33 34 33 31 28 25 24 24 24 24 23 23 23 23 23 23 23 23 23 23 22 21 22 23 24 25 25 25 24 23 21 19 17 16 16 17 18 20 21 22 22 23 23 24
18 17 16 14 13 12 13 13 14 14 14 14 14 13 12 12 13 12 12 13 14 15 16 18 19 21 21 22 22 23 23 23 24 23 23 23 24 25 27 28 29 31 32 32 31 28 25 24 23 23 23 22 22 22 22 22 22 22 22 22 21 20 20 21 23 25 25 24 24 22 20 18 16 15 15 16 17 19 20 22 22 22 22 22 23
15 15 14 14 12 12 13 15 15 15 14 13 13 12 13 13 14 15 17 18 19 19 19 18 19 20 19 19 19 20 20 21 21 22 23 23 24 25 26 27 28 29 29 29 29 27 24 23 22 21 21 20 20 21 21 21 21 21 22 22 21 21 21 22 23 24 23 22 21 19 16 15 14 15 15 17 18 19 20 21 21 21 20 21 21
15 14 14 14 13 13 14 16 16 15 14 13 13 14 14 15 17 18 19 20 19 19 19 18 18 19 19 18 18 18 18 20 21 23 23 24 24 25 25 26 27 27 27 26 26 24 22 21 20 19 19 19 19 20 21 21 21 22 22 22 21 22 23 23 22 21 21 19 17 15 14 13 14 15 16 17 18 19 19 20 20 20 19 19 19
15 15 15 15 14 15 17 17 16 15 15 15 16 17 17 18 18 19 19 20 19 20 21 21 20 20 20 19 18 18 19 21 23 24 24 24 24 24 24 24 25 26 26 25 23 22 20 19 19 19 19 19 19 20 20 21 22 23 22 22 22 22 23 22 20 19 18 16 14 13 13 13 14 15 16 17 18 18 18 18 18 18 18 18 18
14 16 17 17 17 17 18 18 18 18 17 17 19 20 19 19 19 19 20 20 20 21 21 22 22 21 21 20 18 18 19 20 21 22 23 23 23 24 24 24 24 24 24 24 23 20 18 17 18 18 19 20 20 21 21 22 22 23 23 23 22 21 20 19 18 17 15 14 12 12 12 13 14 15 16 17 17 17 17 17 17 17 17 17 17
17 18 19 19 19 20 22 22 21 20 20 19 21 23 22 21 21 21 21 21 21 21 20 21 22 22 21 19 18 18 18 19 20 21 22 23 24 24 24 24 23 23 23 23 22 20 18 17 17 18 19 20 21 22 23 23 22 22 22 22 21 19 18 17 16 15 13 12 11 11 12 13 14 15 15 15 15 15 15 15 15 16 16 16 15
18 19 19 20 20 22 23 22 20 19 20 20 22 23 23 22 23 22 21 20 20 20 20 20 22 22 20 18 18 19 20 20 20 20 22 23 23 23 24 24 24 23 22 21 21 20 19 18 18 18 19 21 21 22 22 23 22 21 21 20 19 17 16 15 14 13 12 11 11 11 12 13 13 13 14 14 14 14 14 15 15 15 15 15 15
17 18 18 19 19 20 21 19 18 18 19 20 21 21 22 22 22 21 20 20 20 20 20 20 21 22 21 19 19 21 21 20 20 21 22 23 24 24 24 24 24 23 21 20 20 19 19 19 19 20 21 21 21 21 21 21 21 20 19 18 17 15 14 14 13 12 11 10 11 11 12 12 12 12 12 13 13 13 13 14 14 14 14 14 14
17 18 19 19 18 19 19 19 19 19 19 20 21 21 20 21 21 21 21 21 21 20 20 20 21 23 23 21 22 22 22 21 21 22 23 24 24 23 23 24 24 21 20 20 21 20 19 19 20 21 21 21 21 20 20 20 19 19 18 17 15 14 13 12 12 11 10 10 10 11 11 11 11 11 11 12 12 12 12 13 13 13 13 13 13
18 19 19 19 18 19 19 21 21 20 19 21 22 21 19 20 21 21 20 21 20 20 20 20 21 23 23 23 22 21 21 21 22 22 23 23 22 19 20 22 23 21 19 21 22 20 18 19 19 19 19 20 19 19 19 19 18 18 17 15 14 13 12 12 11 10 10 10 10 10 10 10 10 10 11 11 12 12 12 12 13 12 12 12 12
19 19 20 19 19 20 20 21 21 19 19 21 22 20 19 19 20 20 20 20 20 20 20 20 21 22 23 23 22 21 20 20 20 20 20 20 19 18 18 20 21 20 19 20 21 19 17 18 18 18 18 18 18 18 18 18 17 17 16 15 14 12 12 11 11 10 9 9 9 9 9 9 9 10 10 11 11 11 11 12 12 12 12 12 12
19 19 20 20 21 21 22 21 20 19 19 20 20 20 19 19 19 19 20 21 20 19 18 18 20 21 21 21 21 20 19 19 18 16 15 15 16 18 18 18 18 17 18 19 19 18 17 17 17 17 17 17 16 17 17 17 17 17 15 14 13 13 12 11 10 10 10 9 8 8 9 9 9 9 10 10 11 11 10 11 11 11 11 11 11
19 19 20 20 22 23 22 21 19 17 17 18 19 20 20 20 20 20 21 22 21 18 15 13 15 16 16 16 16 16 16 15 15 14 13 12 13 16 18 19 18 17 17 18 19 18 17 17 17 16 16 16 16 16 16 16 16 16 15 14 13 13 12 12 11 10 10 9 8 8 8 9 9 9 9 10 10 10 9 10 10 10 11 11 11
17 18 18 17 17 17 17 16 15 15 17 19 21 21 21 20 19 19 20 19 17 15 13 12 12 13 13 13 13 13 13 13 13 12 12 12 13 15 18 20 20 18 17 18 19 18 16 16 16 16 16 16 16 16 16 16 16 15 14 14 14 13 12 12 12 11 10 10 9 8 8 9 9 9 9 9 10 9 8 9 9 9 10 11 10
13 14 14 13 12 12 13 13 13 14 17 18 17 18 18 17 14 11 11 10 10 10 9 9 8 9 9 10 10 10 11 11 12 12 12 14 16 17 18 20 21 20 18 17 18 18 17 15 14 15 15 15 16 16 16 15 15 15 15 15 14 13 13 13 13 12 11 10 9 9 9 9 9 9 9 9 9 8 7 8 8 9 9 10 10
Wind_Direction
222 224 226 227 229 229 228 229 231 232 234 236 238 239 239 240 242 246 250 251 251 252 255 258 261 264 265 266 268 274 283 291 296 300 305 309 308 305 306 306 302 298 295 296 299 304 308 306 305 306 308 307 304 302 300 297 295 293 291 292 292 294 297 297 295 295 294 292 291 291 292 291 289 288 286 285 285 286 287 287 288 289 288 287 288
226 226 230 232 232 231 232 233 235 236 238 239 241 242 244 245 246 250 254 255 255 256 258 262 267 268 267 266 266 272 280 284 287 291 296 303 304 302 302 301 297 292 287 286 291 299 305 305 305 306 307 308 309 309 305 297 293 293 293 293 293 295 298 298 296 293 291 289 288 288 289 290 289 290 288 286 284 286 288 288 288 288 287 286 287
229 229 232 235 235 234 235 236 238 239 240 242 244 246 249 250 251 254 257 259 260 263 264 264 268 270 267 265 267 272 278 282 282 284 290 296 299 299 299 296 292 288 283 283 287 294 300 303 305 306 308 312 315 316 313 304 296 293 293 293 294 296 297 297 296 294 291 288 287 287 287 288 289 290 291 290 290 290 291 292 290 289 288 287 285
231 231 232 234 236 236 238 239 241 243 244 246 247 249 251 252 253 255 259 263 268 272 268 262 264 268 266 265 266 269 276 280 278 279 284 290 294 296 295 291 288 283 279 279 284 290 295 300 305 307 308 311 314 319 321 316 307 299 294 292 292 294 294 294 294 293 291 288 286 286 287 287 288 290 293 296 298 298 298 299 298 295 294 292 290
235 234 233 234 236 238 241 243 245 247 249 250 250 251 252 254 256 257 261 267 273 276 272 265 265 267 265 265 265 266 274 282 279 276 280 285 289 293 291 287 285 281 278 276 278 286 292 298 305 308 310 311 313 317 322 324 319 310 300 294 292 292 291 291 291 290 290 288 285 284 287 289 289 290 293 297 299 301 303 304 304 302 301 301 299
236 235 233 234 238 240 243 245 248 250 251 252 251 252 254 258 261 262 264 270 275 276 273 270 270 270 267 265 265 263 270 280 278 274 278 281 283 288 288 284 283 280 278 276 277 285 293 299 305 309 312 312 312 315 318 321 322 318 311 302 296 294 292 291 292 291 290 289 286 284 286 288 289 289 290 292 295 298 300 300 300 300 301 302 301
236 236 233 235 240 242 244 248 250 251 252 251 251 253 257 261 265 267 267 269 274 277 276 272 271 273 272 270 267 263 267 277 276 271 276 278 278 284 283 278 277 274 273 276 279 288 297 303 307 308 309 309 309 312 313 313 314 316 314 309 303 299 297 294 294 293 292 291 290 289 287 286 287 289 290 291 292 294 295 295 296 297 298 298 299
233 237 235 236 241 244 246 249 250 251 253 252 253 256 259 263 267 270 268 268 273 278 279 275 273 273 273 273 271 266 267 275 275 271 275 276 276 281 277 271 271 270 270 275 281 289 298 303 305 305 305 306 306 308 309 307 307 310 312 309 305 303 301 298 296 294 294 293 292 292 290 287 288 288 289 290 290 291 292 293 294 295 295 296 297
232 238 237 236 240 243 244 247 248 250 254 255 256 259 262 266 270 271 270 269 273 276 278 278 276 275 274 274 274 270 268 274 275 272 272 272 275 278 272 266 268 268 269 275 280 288 295 299 303 304 304 305 306 307 308 307 306 308 310 308 305 303 302 301 298 296 295 294 293 291 290 289 290 290 289 289 289 290 291 291 292 293 295 296 296
232 237 238 238 240 241 241 244 245 248 253 258 261 262 264 267 270 271 271 271 273 275 276 276 275 276 276 275 275 273 270 273 276 273 268 268 272 274 268 264 266 266 268 274 281 287 293 297 302 304 304 306 308 308 308 306 304 305 306 305 303 301 300 299 298 295 294 293 291 290 289 289 290 291 290 289 289 290 290 290 290 291 294 296 296
232 236 241 241 241 240 240 242 243 245 249 253 258 261 263 265 268 269 271 272 272 272 272 272 272 273 274 273 274 273 270 271 274 269 262 264 269 269 263 262 264 265 268 274 279 285 293 299 303 304 305 307 307 307 306 304 302 301 302 302 301 301 300 298 296 293 292 291 290 288 288 288 289 289 289 289 289 289 289 288 288 291 294 296 297
233 237 241 243 242 242 241 242 244 245 246 247 253 258 261 265 267 268 270 270 271 270 268 267 267 267 268 269 270 271 270 271 271 263 257 260 265 263 259 259 262 266 270 272 278 287 295 300 302 305 307 307 307 306 305 304 302 302 302 301 301 302 302 301 298 295 292 291 290 288 287 287 287 287 288 289 289 288 287 287 288 292 294 296 296
235 237 240 242 243 243 244 246 248 251 251 252 255 260 263 265 267 269 270 269 269 269 267 265 264 263 264 264 265 267 267 267 266 260 254 256 258 256 256 258 260 265 270 274 282 292 298 301 303 305 306 306 306 304 303 302 301 301 300 297 298 300 301 302 300 296 293 291 291 290 289 287 286 286 287 288 288 287 288 289 291 293 293 294 296
236 236 238 241 243 245 247 250 253 255 256 258 260 263 265 267 269 271 270 268 269 270 269 268 266 262 261 261 262 264 263 262 262 258 252 251 251 250 252 255 258 263 269 276 286 294 299 302 305 305 302 301 302 300 301 300 299 299 300 297 296 298 298 298 297 293 291 290 290 290 289 287 285 284 286 287 287 289 291 292 293 293 293 293 295
235 235 238 241 244 246 249 252 254 255 256 258 260 263 266 268 270 271 271 271 272 273 273 273 270 263 260 260 261 263 262 259 257 253 247 245 245 245 247 251 256 264 270 278 288 295 298 301 303 301 299 300 301 299 300 300 299 300 302 300 300 301 299 296 293 290 288 288 288 288 288 287 287 287 288 288 288 289 291 292 292 293 293 294 295
233 234 238 240 243 245 246 248 250 252 255 258 262 266 267 268 270 271 273 273 275 276 276 276 271 264 262 261 260 261 260 258 255 249 243 243 243 242 245 249 256 264 272 281 290 295 297 299 301 302 303 304 303 300 300 301 301 302 301 299 299 300 297 295 294 293 291 289 289 290 290 289 288 288 289 290 290 292 292 292 292 294 294 294 295
233 234 236 237 238 239 242 246 249 252 256 260 264 267 268 269 270 271 273 274 275 278 279 275 270 268 267 264 261 262 261 259 254 244 240 244 243 239 240 247 255 263 272 282 291 295 295 298 303 307 310 310 309 307 306 304 302 300 298 297 297 296 294 293 293 292 290 288 288 289 290 290 289 288 289 291 292 293 292 293 294 295 295 295 296
231 230 230 232 235 238 243 249 252 255 256 257 261 263 265 268 270 271 274 275 276 278 278 275 274 273 268 259 257 260 260 257 249 239 236 241 240 235 235 241 250 260 271 282 288 289 291 298 306 311 314 315 315 316 314 307 301 299 298 297 296 296 296 293 291 290 289 287 287 287 288 289 288 288 289 290 292 292 293 295 296 296 296 295 296
226 226 229 233 239 244 249 254 256 258 259 259 262 264 266 269 272 274 277 278 278 279 278 278 278 274 267 261 259 261 260 253 242 234 233 238 238 234 233 238 249 260 270 280 283 284 290 300 306 311 315 316 317 318 317 311 304 300 298 296 296 297 296 292 290 292 293 291 291 290 290 289 288 289 289 290 292 293 295 296 296 295 296 295 294
221 225 232 240 246 250 253 258 260 260 261 263 266 269 271 274 277 279 280 281 281 280 279 280 280 274 269 267 265 264 259 248 237 233 233 236 237 234 236 242 252 258 264 272 280 285 294 300 303 307 312 313 314 316 316 313 306 300 297 297 297 297 296 293 292 292 291 290 291 292 291 290 291 291 291 292 294 296 297 297 295 295 296 295 294
224 234 244 249 253 255 257 260 261 261 263 267 271 275 279 281 282 282 282 282 281 280 280 281 280 274 269 266 263 260 254 246 238 234 235 239 240 239 241 246 252 260 270 279 282 283 290 295 300 306 311 312 312 314 314 311 305 300 298 298 298 297 296 295 294 293 291 289 289 290 289 289 290 292 293 296 297 296 296 295 293 294 294 294 292
231 239 246 252 256 256 258 259 260 264 270 276 280 284 286 287 286 285 283 281 280 281 281 279 276 274 269 263 259 256 250 244 238 236 239 244 245 242 244 249 257 266 274 276 273 280 289 295 299 304 308 309 310 311 310 307 304 301 299 298 297 297 296 295 294 293 292 290 289 290 290 290 292 294 295 294 293 291 292 292 291 291 291 291 290
232 237 249 263 263 256 255 260 266 274 282 287 290 292 292 289 286 284 282 280 280 281 279 276 275 275 269 262 260 256 248 242 238 239 244 246 243 241 247 258 266 267 263 265 275 286 293 296 298 300 303 306 309 309 308 306 303 301 299 297 296 296 296 295 294 292 289 288 289 291 292 294 294 294 292 290 290 291 294 294 293 291 290 291 291
244 255 264 268 262 255 258 270 278 287 292 294 294 294 291 285 282 282 283 281 280 281 279 274 270 269 265 262 259 251 243 240 238 240 246 246 241 246 257 264 266 265 267 277 287 291 291 293 297 300 304 306 308 307 306 304 302 299 297 296 296 296 296 295 294 292 290 289 290 292 294 294 293 291 290 291 294 296 297 296 295 294 293 294 293
268 271 268 261 255 260 274 283 288 293 296 294 293 291 287 283 282 284 284 282 281 281 279 272 266 261 258 257 254 244 240 241 239 242 249 246 241 251 261 261 261 266 276 286 288 286 288 294 298 303 306 307 306 305 304 302 299 296 296 297 297 296 295 293 292 292 292 292 293 293 293 292 291 291 292 295 297 298 297 297 298 298 298 297 296
276 270 263 257 260 273 284 290 294 297 296 293 291 289 287 287 287 285 282 280 280 279 272 264 263 261 254 250 246 241 241 244 244 248 253 246 240 248 254 257 264 273 280 283 282 283 291 297 302 306 307 306 305 304 302 300 296 295 297 298 298 298 296 294 293 293 293 293 292 292 292 291 292 293 294 295 296 297 298 299 300 301 301 300 299
266 259 256 261 273 284 292 296 297 297 294 292 291 290 290 289 289 286 283 278 276 273 265 259 261 260 251 244 242 243 248 255 256 253 249 242 241 245 251 263 274 279 278 277 279 286 293 299 306 310 309 306 304 302 299 296 295 296 297 297 298 299 297 296 295 294 293 293 293 294 294 294 294 294 294 296 298 300 301 302 303 303 304 303 303
252 256 264 274 284 291 295 296 295 294 294 293 292 291 289 288 287 286 286 281 273 266 262 260 258 252 244 241 243 247 255 260 256 248 242 239 240 247 259 272 277 275 273 276 282 289 294 299 305 309 308 304 301 298 296 295 295 296 297 297 298 299 299 298 296 295 295 294 294 295 296 295 294 295 297 299 302 304 305 305 305 306 307 307 307
258 268 277 283 289 294 296 294 293 294 294 292 289 287 285 284 284 285 285 282 274 266 259 254 251 249 247 248 250 252 256 255 249 246 246 246 251 262 272 275 273 269 271 279 287 293 299 304 307 309 306 302 299 296 295 297 299 299 299 300 300 301 302 302 300 298 299 299 298 298 297 296 296 297 300 303 305 307 307 307 308 309 310 311 312
273 278 282 287 294 297 295 293 292 292 290 288 285 283 282 283 284 285 281 273 266 262 257 251 249 250 252 253 254 254 255 252 247 246 251 258 268 275 279 276 271 270 276 283 290 297 303 306 307 306 303 301 299 296 295 298 301 299 297 298 299 300 302 302 302 302 303 302 300 299 297 297 297 300 304 307 308 309 309 309 311 314 315 317 318
279 281 284 290 296 295 293 291 289 286 285 284 282 281 282 282 282 282 278 268 261 259 255 249 245 244 245 246 247 244 243 243 244 249 259 269 276 280 280 276 273 275 282 288 293 300 304 305 303 301 298 297 295 291 292 296 297 292 289 292 295 297 298 298 300 304 305 303 302 301 299 299 301 304 307 309 308 309 310 311 315 317 319 322 323
280 283 287 291 292 289 286 283 281 280 281 281 281 281 281 281 282 280 273 267 262 257 250 244 239 238 240 242 240 238 238 240 247 258 269 275 279 280 277 274 276 281 286 291 296 302 305 304 300 296 293 291 289 287 287 289 288 286 286 290 293 296 296 296 300 305 306 304 305 304 302 303 305 306 308 308 307 308 311 314 317 319 320 324 326
276 282 287 287 282 280 278 277 276 277 277 277 278 278 277 281 286 280 268 265 261 251 245 243 240 238 240 241 242 243 244 246 253 265 273 278 280 278 274 274 278 283 287 293 299 303 304 301 296 292 290 290 289 286 284 282 282 285 288 291 293 292 293 296 301 305 304 302 303 304 304 305 307 307 307 306 306 308 313 316 318 320 322 324 326
275 277 278 276 275 275 275 275 275 275 275 275 276 276 277 282 286 278 269 267 255 240 236 237 237 237 239 243 246 248 250 253 261 269 275 277 276 273 273 276 280 284 289 296 300 302 301 297 292 288 287 286 285 283 282 282 285 290 292 293 292 290 292 297 300 302 303 304 305 307 307 308 307 306 305 304 305 310 314 317 319 321 322 322 325
269 271 271 272 274 274 272 273 273 274 276 278 278 276 277 279 274 262 254 242 225 222 226 230 235 241 247 251 254 257 259 263 268 272 273 274 272 271 274 279 283 288 294 297 299 299 297 295 292 290 287 285 284 284 285 287 289 292 292 291 290 290 293 296 298 302 306 308 308 309 309 307 305 303 302 304 307 310 314 316 318 320 320 320 322
266 268 269 269 271 273 273 274 276 278 281 282 279 274 270 263 252 242 236 230 227 231 238 243 249 255 259 262 264 266 268 268 270 271 272 271 271 274 280 286 290 294 296 296 297 298 297 295 295 294 292 290 289 289 289 289 289 290 290 289 290 292 295 298 301 305 308 308 308 308 307 305 302 301 302 306 308 310 314 316 317 318 318 318 319
265 266 265 265 270 275 276 274 277 280 279 275 268 261 252 247 242 239 240 245 250 253 257 260 263 265 266 269 271 272 272 271 271 271 272 273 276 281 287 290 292 294 295 297 299 300 299 298 296 294 292 292 291 290 291 290 290 290 289 288 289 290 294 300 304 306 307 307 306 306 304 301 300 302 304 306 308 311 315 315 315 316 317 316 317
265 266 267 267 268 270 270 270 271 271 267 261 255 248 243 242 244 248 253 257 261 264 266 268 271 273 274 275 275 273 272 272 273 273 275 279 283 286 289 290 290 290 293 295 298 300 300 299 296 294 293 293 293 293 293 293 292 291 290 290 291 293 295 300 303 305 305 305 304 303 301 300 301 304 305 308 311 313 315 315 315 316 316 316 317
268 267 265 266 266 263 264 266 267 264 261 257 252 248 246 247 250 256 262 267 271 273 275 278 281 283 282 281 279 277 277 278 279 281 282 284 286 287 288 289 289 291 292 293 295 297 298 296 295 295 295 295 296 295 295 294 292 290 289 291 294 296 300 303 304 304 304 303 302 301 300 300 302 305 307 310 313 314 315 316 316 316 317 316 318
269 265 262 262 261 259 260 262 263 262 261 260 256 251 249 251 255 261 268 273 275 278 282 285 285 284 284 284 284 284 284 284 285 285 285 284 284 286 287 288 289 292 293 292 292 294 294 294 295 296 296 296 296 295 294 293 292 291 291 291 292 295 299 302 303 303 302 301 299 299 300 301 303 307 310 313 315 316 317 317 317 318 319 319 321
262 262 259 257 256 257 259 260 260 261 262 262 258 253 250 251 257 264 269 272 274 276 279 282 282 282 284 285 284 283 284 285 286 287 287 287 288 290 291 290 290 291 291 291 292 293 292 293 295 296 297 298 298 298 297 296 294 294 292 290 289 293 297 299 300 300 299 297 296 298 300 302 305 310 313 315 316 317 318 319 320 322 322 322 324
255 256 258 259 259 258 257 256 256 259 260 259 257 256 256 259 264 268 269 271 273 275 277 280 281 281 281 283 283 282 282 282 283 283 283 285 289 291 290 289 289 288 287 289 291 292 291 292 294 295 296 298 299 299 299 297 296 295 292 288 288 291 294 296 297 295 293 293 294 297 300 304 309 313 315 316 318 319 320 322 324 325 324 325 326
254 254 255 259 261 258 255 255 257 259 258 257 256 258 261 265 267 269 270 270 273 276 278 279 279 279 280 282 282 281 280 280 280 278 279 281 284 286 286 287 286 285 285 286 288 289 292 294 295 295 295 295 295 296 295 294 296 296 292 288 288 290 292 293 292 289 288 290 292 296 301 307 312 314 314 316 320 321 321 324 326 327 328 328 328
252 253 255 257 259 258 258 261 263 261 260 259 259 259 262 264 265 267 269 270 273 276 277 276 277 279 282 283 280 277 277 277 275 274 276 279 281 283 284 284 285 285 285 284 284 288 292 295 296 294 293 292 291 291 291 293 295 294 291 288 288 289 289 288 285 283 284 286 290 297 303 308 312 314 315 317 320 321 323 326 328 329 331 331 329
250 253 254 255 255 257 260 262 260 258 259 260 258 256 258 261 264 266 268 270 274 277 277 276 276 277 279 279 275 274 274 273 272 273 274 277 280 282 283 283 285 287 285 282 282 286 289 291 291 291 290 290 289 288 289 291 292 291 289 288 288 288 286 283 279 278 280 283 289 297 303 306 311 315 316 319 322 324 325 328 330 332 335 334 331
250 252 254 257 259 259 260 260 258 256 257 257 256 255 255 258 263 266 268 270 271 273 274 275 276 278 279 279 276 274 272 270 270 273 275 278 280 280 279 283 289 292 287 282 283 286 288 289 289 289 288 287 286 287 289 290 290 290 288 287 287 286 281 277 274 273 275 280 288 295 300 304 310 315 317 319 323 327 329 330 332 334 337 337 335
251 251 254 258 259 259 258 259 259 256 253 254 257 259 258 259 263 266 268 270 271 271 271 272 272 273 275 275 274 273 272 270 270 272 275 278 280 280 281 287 294 296 292 287 286 286 286 288 290 290 288 286 284 285 289 291 290 288 287 286 286 283 276 272 270 268 270 278 285 291 297 303 307 312 316 318 321 326 329 330 333 337 338 339 338
248 248 250 252 255 258 260 261 260 256 252 253 259 263 262 262 265 266 267 268 268 266 265 264 262 263 266 270 271 272 274 275 274 273 274 277 281 286 290 293 297 299 298 296 294 292 290 290 291 290 288 285 283 284 288 290 288 286 285 285 284 280 273 269 266 264 267 274 282 288 295 301 305 309 314 314 316 323 327 329 334 340 340 341 341
245 247 250 253 255 256 256 254 254 253 253 256 259 261 262 263 263 261 261 263 263 259 254 251 254 258 263 267 271 274 276 277 277 277 277 279 283 289 294 298 301 303 303 300 297 294 288 286 288 289 285 282 280 281 285 287 285 283 283 282 280 277 272 267 262 260 263 270 278 285 292 299 304 308 310 309 311 318 324 328 334 341 343 344 345
248 247 247 247 248 249 248 248 250 254 258 260 262 262 263 263 261 260 260 262 262 258 250 244 249 257 261 263 267 271 273 275 277 280 285 290 292 293 295 297 300 304 305 299 294 290 285 282 285 286 283 280 279 279 282 284 283 280 278 276 275 273 269 263 259 258 260 265 274 283 290 297 303 305 305 304 307 313 321 327 333 340 345 348 348
246 244 242 241 243 246 250 254 257 259 260 262 264 264 265 263 259 255 253 252 254 260 264 261 261 264 265 269 277 281 280 278 276 276 283 291 294 292 291 291 294 299 302 295 288 286 284 282 282 283 281 280 279 278 280 282 281 277 272 270 269 269 266 260 256 256 258 263 270 279 285 293 301 302 300 300 303 308 315 324 330 337 346 349 348
Height
3168 3169 3171 3172 3173 3174 3176 3177 3178 3179 3180 3181 3181 3182 3183 3183 3183 3183 3183 3184 3185 3186 3187 3187 3188 3188 3187 3186 3186 3185 3186 3186 3186 3186 3186 3185 3184 3183 3182 3181 3180 3180 3179 3179 3179 3178 3178 3178 3177 3177 3176 3176 3176 3175 3174 3174 3173 3173 3172 3171 3171 3170 3169 3168 3167 3166 3166 3165 3163 3162 3161 3160 3159 3158 3157 3156 3155 3153 3153 3152 3151 3151 3150 3149 3148
3165 3167 3169 3169 3171 3172 3174 3175 3176 3177 3177 3178 3179 3179 3179 3180 3180 3180 3180 3181 3182 3183 3184 3184 3185 3185 3185 3184 3183 3182 3183 3183 3183 3184 3184 3183 3182 3181 3180 3179 3179 3178 3178 3177 3177 3177 3177 3176 3175 3175 3175 3174 3174 3173 3172 3172 3171 3170 3170 3169 3168 3168 3167 3166 3165 3164 3163 3162 3161 3160 3159 3157 3156 3155 3154 3153 3152 3151 3150 3149 3148 3148 3147 3146 3145
3163 3165 3166 3167 3168 3170 3171 3172 3173 3174 3174 3175 3176 3176 3176 3177 3178 3178 3178 3178 3180 3181 3182 3181 3180 3181 3181 3181 3180 3180 3180 3181 3181 3181 3182 3181 3180 3179 3178 3177 3177 3176 3176 3175 3175 3175 3175 3175 3174 3173 3173 3172 3172 3171 3170 3169 3168 3168 3167 3166 3165 3165 3164 3163 3162 3161 3160 3160 3159 3157 3156 3155 3153 3152 3151 3150 3150 3149 3147 3146 3145 3144 3143 3142 3142
3160 3162 3163 3165 3166 3168 3169 3170 3170 3171 3171 3172 3173 3174 3174 3175 3175 3175 3176 3176 3178 3179 3179 3178 3178 3178 3178 3178 3178 3177 3177 3178 3178 3178 3179 3179 3178 3177 3176 3176 3175 3174 3174 3173 3174 3174 3173 3173 3172 3172 3171 3171 3170 3169 3169 3168 3166 3166 3165 3163 3162 3162 3161 3160 3159 3158 3157 3157 3156 3155 3153 3152 3151 3149 3147 3146 3145 3145 3144 3143 3142 3141 3140 3139 3138
3158 3159 3161 3162 3163 3165 3166 3167 3167 3168 3169 3170 3171 3172 3172 3172 3172 3173 3173 3174 3175 3175 3174 3175 3175 3175 3175 3175 3174 3174 3174 3175 3175 3175 3176 3176 3175 3175 3174 3173 3173 3172 3172 3172 3172 3172 3172 3171 3171 3170 3169 3169 3168 3167 3166 3165 3164 3163 3162 3161 3160 3159 3158 3157 3156 3155 3154 3154 3154 3153 3151 3150 3149 3147 3145 3143 3141 3140 3140 3139 3138 3137 3136 3135 3134
3155 3156 3158 3159 3160 3162 3163 3164 3164 3166 3166 3167 3169 3169 3169 3169 3169 3170 3171 3171 3172 3172 3171 3171 3171 3171 3172 3172 3171 3171 3172 3172 3172 3173 3173 3173 3173 3172 3172 3171 3171 3170 3170 3170 3170 3170 3170 3169 3168 3168 3167 3166 3165 3164 3164 3163 3162 3161 3160 3159 3158 3157 3156 3155 3153 3152 3151 3150 3150 3150 3149 3147 3146 3145 3144 3142 3140 3138 3137 3136 3135 3134 3133 3132 3130
3152 3153 3155 3156 3157 3158 3160 3161 3162 3163 3164 3165 3166 3166 3166 3166 3166 3168 3169 3168 3168 3168 3168 3168 3168 3168 3169 3169 3168 3168 3169 3169 3170 3170 3170 3170 3170 3169 3169 3168 3168 3168 3168 3167 3167 3167 3167 3166 3166 3165 3164 3164 3163 3162 3161 3161 3160 3159 3158 3157 3155 3154 3153 3152 3151 3149 3148 3147 3147 3146 3146 3145 3143 3142 3141 3140 3138 3137 3135 3133 3132 3131 3130 3129 3128
3148 3149 3152 3153 3154 3155 3157 3159 3160 3161 3161 3162 3162 3163 3163 3163 3163 3164 3165 3165 3164 3164 3165 3165 3165 3166 3166 3165 3164 3165 3166 3166 3166 3167 3168 3168 3168 3167 3166 3166 3165 3165 3165 3165 3165 3165 3164 3164 3163 3163 3162 3162 3161 3160 3159 3159 3158 3157 3156 3154 3153 3151 3150 3149 3148 3147 3145 3144 3143 3142 3142 3141 3140 3139 3138 3137 3136 3134 3133 3131 3129 3128 3127 3125 3125
3145 3146 3148 3150 3151 3153 3155 3156 3157 3158 3158 3158 3159 3160 3160 3159 3160 3161 3161 3161 3161 3161 3161 3162 3162 3162 3162 3161 3161 3161 3162 3163 3163 3164 3165 3165 3165 3164 3163 3163 3163 3163 3163 3163 3162 3162 3162 3161 3160 3160 3159 3159 3159 3158 3157 3156 3154 3154 3153 3152 3150 3149 3147 3146 3144 3143 3142 3141 3140 3139 3138 3137 3136 3136 3134 3133 3132 3131 3129 3128 3126 3124 3123 3121 3120
3142 3143 3145 3147 3149 3150 3152 3153 3155 3155 3155 3155 3156 3157 3157 3156 3156 3156 3156 3156 3157 3157 3157 3157 3157 3158 3158 3157 3157 3157 3158 3158 3159 3161 3162 3162 3161 3161 3161 3161 3160 3160 3160 3160 3160 3160 3159 3159 3158 3157 3156 3155 3155 3154 3153 3152 3151 3150 3150 3149 3147 3146 3144 3143 3141 3140 3139 3138 3137 3135 3134 3133 3133 3132 3130 3129 3128 3127 3126 3124 3122 3121 3119 3117 3116
3139 3140 3142 3144 3146 3148 3149 3151 3152 3153 3153 3153 3153 3153 3153 3152 3152 3152 3152 3152 3152 3152 3153 3152 3153 3153 3153 3153 3153 3153 3153 3154 3156 3157 3158 3158 3158 3157 3158 3158 3158 3158 3158 3158 3157 3157 3156 3156 3155 3154 3153 3152 3151 3150 3150 3149 3147 3147 3146 3145 3144 3142 3141 3139 3138 3137 3136 3134 3133 3132 3131 3130 3129 3128 3127 3126 3124 3123 3122 3120 3119 3117 3116 3113 3111
3136 3137 3139 3141 3143 3145 3146 3148 3149 3149 3150 3150 3150 3150 3150 3149 3149 3148 3149 3149 3148 3148 3148 3148 3148 3148 3148 3149 3149 3148 3149 3150 3152 3153 3154 3154 3154 3154 3155 3155 3154 3155 3155 3155 3154 3154 3153 3153 3152 3151 3150 3148 3147 3146 3145 3145 3144 3143 3142 3141 3140 3139 3137 3135 3134 3133 3132 3130 3129 3128 3127 3125 3124 3124 3123 3122 3120 3119 3117 3116 3114 3113 3112 3110 3107
3132 3134 3136 3138 3140 3141 3143 3144 3145 3146 3146 3147 3147 3146 3146 3146 3146 3145 3146 3145 3144 3144 3144 3144 3144 3143 3143 3144 3144 3144 3144 3145 3147 3149 3150 3150 3150 3150 3151 3151 3151 3151 3152 3151 3151 3151 3150 3149 3149 3148 3147 3145 3143 3142 3142 3141 3139 3139 3138 3137 3136 3135 3134 3132 3130 3129 3128 3126 3124 3123 3122 3121 3119 3119 3119 3117 3115 3114 3113 3111 3110 3108 3107 3106 3103
3129 3132 3133 3135 3137 3138 3139 3140 3142 3142 3143 3143 3143 3143 3143 3144 3143 3143 3142 3142 3141 3140 3140 3140 3140 3139 3138 3139 3139 3140 3140 3141 3143 3145 3146 3146 3146 3146 3147 3147 3148 3148 3148 3148 3148 3148 3147 3146 3145 3144 3143 3142 3141 3139 3138 3137 3135 3134 3134 3134 3133 3132 3131 3129 3127 3125 3124 3123 3120 3119 3118 3117 3115 3114 3114 3113 3111 3109 3108 3106 3105 3103 3102 3101 3099
3127 3129 3130 3132 3133 3135 3136 3137 3138 3139 3139 3139 3139 3140 3141 3141 3140 3140 3139 3137 3137 3137 3136 3136 3136 3135 3134 3135 3136 3136 3135 3137 3138 3140 3141 3142 3142 3142 3143 3144 3144 3145 3145 3146 3145 3145 3144 3143 3142 3141 3140 3139 3138 3136 3135 3134 3132 3131 3130 3129 3128 3127 3125 3124 3123 3121 3120 3119 3117 3115 3113 3112 3110 3109 3109 3108 3107 3105 3104 3101 3100 3099 3097 3095 3093
3124 3125 3127 3129 3130 3131 3133 3133 3134 3135 3135 3135 3136 3136 3137 3136 3136 3136 3135 3133 3133 3132 3132 3132 3132 3131 3130 3130 3131 3131 3131 3132 3133 3134 3136 3137 3137 3138 3139 3140 3141 3142 3142 3143 3142 3141 3140 3139 3138 3138 3137 3136 3135 3133 3132 3131 3128 3127 3126 3125 3123 3122 3121 3119 3118 3116 3115 3113 3111 3110 3108 3107 3106 3104 3104 3103 3102 3101 3099 3097 3095 3094 3092 3089 3087
3120 3122 3124 3125 3127 3128 3129 3129 3130 3130 3131 3131 3131 3132 3132 3132 3132 3132 3131 3130 3128 3128 3128 3128 3127 3126 3127 3126 3127 3127 3126 3127 3129 3130 3132 3133 3133 3134 3135 3137 3138 3139 3139 3139 3139 3138 3137 3136 3136 3135 3134 3133 3131 3130 3129 3127 3125 3124 3122 3121 3119 3118 3117 3116 3114 3112 3111 3108 3106 3105 3104 3103 3102 3101 3100 3099 3098 3096 3094 3092 3091 3089 3086 3084 3082
3117 3119 3120 3122 3123 3124 3125 3125 3126 3126 3126 3127 3127 3127 3128 3128 3128 3128 3128 3127 3125 3123 3123 3123 3122 3122 3123 3123 3122 3121 3121 3122 3125 3126 3127 3127 3127 3128 3130 3132 3134 3135 3136 3136 3135 3134 3133 3133 3132 3132 3131 3130 3128 3126 3125 3124 3122 3120 3118 3117 3115 3114 3113 3112 3109 3107 3106 3104 3103 3102 3100 3099 3099 3098 3097 3096 3094 3092 3089 3087 3086 3084 3081 3079 3077
3114 3115 3116 3118 3119 3120 3121 3121 3122 3122 3123 3123 3124 3124 3124 3124 3124 3124 3124 3123 3122 3119 3118 3118 3118 3118 3118 3117 3115 3115 3117 3118 3118 3120 3120 3120 3122 3124 3125 3128 3130 3131 3131 3131 3131 3130 3130 3129 3129 3129 3128 3127 3124 3123 3121 3119 3118 3116 3114 3113 3111 3110 3109 3107 3105 3103 3101 3099 3098 3097 3096 3095 3095 3094 3093 3092 3090 3087 3085 3083 3081 3078 3076 3075 3073
3110 3111 3113 3115 3116 3117 3118 3118 3118 3119 3119 3120 3120 3120 3120 3120 3120 3120 3120 3119 3117 3115 3113 3113 3114 3114 3113 3112 3111 3112 3113 3112 3111 3113 3114 3115 3118 3121 3123 3125 3126 3126 3125 3125 3126 3126 3126 3124 3123 3124 3125 3124 3121 3119 3117 3115 3113 3112 3110 3109 3107 3105 3104 3103 3101 3099 3097 3096 3094 3093 3092 3091 3091 3089 3088 3087 3085 3082 3081 3078 3076 3073 3072 3070 3068
3107 3109 3111 3112 3113 3114 3114 3114 3115 3115 3116 3117 3117 3117 3117 3117 3116 3116 3116 3114 3113 3111 3110 3109 3109 3109 3109 3108 3107 3108 3108 3107 3107 3108 3109 3113 3117 3120 3121 3122 3122 3120 3119 3120 3122 3122 3121 3120 3119 3119 3120 3119 3117 3115 3114 3111 3110 3108 3106 3104 3103 3101 3100 3098 3097 3095 3094 3092 3091 3090 3089 3088 3087 3085 3084 3082 3080 3078 3076 3074 3071 3069 3067 3066 3064
3104 3106 3108 3110 3111 3111 3111 3111 3112 3112 3112 3113 3113 3113 3113 3113 3112 3112 3111 3110 3108 3107 3106 3105 3104 3105 3106 3105 3103 3103 3103 3103 3104 3105 3107 3112 3116 3117 3118 3119 3119 3118 3118 3119 3119 3119 3118 3117 3117 3116 3115 3114 3113 3111 3109 3107 3105 3103 3101 3100 3098 3097 3095 3094 3092 3091 3089 3088 3087 3086 3085 3084 3083 3081 3080 3078 3076 3074 3072 3070 3069 3066 3064 3062 3060
3101 3102 3104 3106 3108 3109 3108 3108 3109 3109 3109 3109 3109 3109 3109 3108 3107 3106 3105 3104 3103 3102 3102 3102 3101 3101 3101 3100 3099 3099 3099 3100 3101 3102 3105 3110 3113 3115 3116 3116 3117 3117 3118 3117 3117 3117 3116 3115 3114 3113 3112 3110 3108 3106 3104 3102 3100 3098 3097 3095 3093 3092 3091 3089 3088 3087 3086 3084 3083 3082 3081 3080 3078 3077 3075 3073 3071 3070 3068 3066 3064 3062 3060 3058 3056
3098 3099 3100 3103 3105 3106 3106 3106 3105 3105 3105 3105 3104 3104 3104 3103 3102 3101 3100 3099 3099 3098 3099 3099 3098 3097 3097 3096 3095 3095 3097 3097 3097 3099 3102 3107 3110 3112 3114 3114 3114 3115 3115 3115 3114 3114 3113 3112 3111 3110 3108 3106 3104 3102 3099 3097 3095 3093 3092 3090 3089 3088 3087 3085 3084 3083 3081 3080 3079 3078 3077 3076 3074 3072 3070 3068 3067 3065 3063 3061 3059 3058 3056 3053 3051
3096 3097 3098 3099 3102 3103 3103 3102 3102 3102 3101 3101 3100 3099 3099 3098 3097 3097 3095 3095 3094 3094 3094 3094 3095 3094 3093 3092 3092 3092 3094 3094 3094 3096 3101 3105 3108 3110 3111 3112 3112 3112 3112 3112 3111 3110 3110 3109 3108 3106 3104 3102 3099 3097 3094 3092 3091 3089 3087 3086 3085 3084 3082 3081 3080 3079 3077 3076 3075 3074 3073 3071 3070 3068 3066 3064 3063 3061 3059 3057 3055 3053 3051 3049 3046
3094 3095 3096 3096 3097 3098 3099 3098 3098 3097 3097 3096 3095 3095 3093 3093 3093 3092 3091 3091 3091 3091 3091 3091 3091 3091 3091 3090 3089 3089 3091 3092 3093 3096 3100 3103 3105 3107 3108 3109 3109 3110 3109 3108 3108 3107 3107 3106 3104 3102 3100 3097 3094 3092 3089 3088 3086 3085 3083 3082 3081 3080 3078 3077 3076 3075 3073 3072 3071 3070 3069 3067 3065 3064 3062 3060 3059 3057 3055 3052 3050 3049 3047 3044 3041
3091 3092 3092 3093 3093 3094 3094 3094 3093 3093 3092 3091 3091 3090 3089 3089 3089 3088 3088 3088 3088 3088 3088 3088 3088 3089 3089 3089 3088 3088 3089 3091 3094 3097 3100 3101 3102 3104 3106 3106 3107 3106 3106 3105 3104 3103 3103 3102 3100 3098 3095 3092 3090 3087 3085 3084 3082 3081 3080 3079 3077 3076 3075 3074 3072 3071 3070 3068 3067 3066 3065 3063 3062 3060 3059 3057 3055 3053 3051 3048 3046 3044 3042 3039 3036
3088 3088 3088 3089 3089 3090 3090 3089 3089 3088 3088 3087 3087 3086 3085 3085 3085 3085 3085 3085 3085 3086 3086 3086 3086 3087 3087 3087 3087 3087 3089 3092 3094 3096 3098 3099 3101 3102 3103 3104 3103 3103 3102 3101 3100 3099 3098 3097 3096 3094 3091 3088 3085 3083 3081 3079 3078 3077 3076 3075 3074 3073 3072 3071 3069 3067 3066 3065 3064 3063 3061 3060 3059 3057 3055 3053 3052 3049 3047 3045 3042 3040 3038 3035 3033
3084 3084 3084 3085 3085 3085 3085 3085 3084 3084 3084 3084 3084 3083 3082 3081 3081 3081 3081 3081 3082 3083 3083 3083 3084 3085 3085 3085 3087 3088 3090 3092 3093 3095 3096 3097 3099 3100 3101 3100 3100 3099 3099 3098 3096 3094 3093 3091 3089 3088 3086 3083 3081 3080 3078 3076 3075 3073 3072 3072 3071 3069 3068 3066 3065 3064 3063 3062 3060 3059 3058 3057 3055 3054 3052 3050 3048 3046 3044 3041 3039 3037 3035 3032 3030
3080 3080 3080 3080 3081 3081 3080 3080 3079 3080 3080 3081 3080 3079 3078 3078 3077 3078 3078 3078 3079 3080 3080 3080 3081 3083 3083 3085 3086 3087 3088 3090 3091 3093 3094 3095 3095 3096 3096 3096 3096 3096 3095 3094 3093 3091 3089 3087 3084 3082 3081 3079 3078 3076 3074 3073 3072 3071 3069 3068 3068 3066 3064 3062 3061 3060 3059 3058 3057 3056 3055 3054 3052 3051 3049 3047 3045 3043 3040 3038 3036 3034 3032 3030 3028
3076 3076 3076 3076 3076 3076 3076 3076 3076 3076 3077 3077 3076 3075 3075 3075 3074 3074 3075 3075 3076 3077 3077 3078 3079 3080 3082 3084 3085 3086 3087 3088 3090 3091 3092 3092 3092 3092 3092 3092 3092 3092 3091 3090 3089 3088 3086 3084 3081 3079 3077 3076 3075 3073 3071 3070 3070 3069 3067 3066 3064 3063 3061 3059 3059 3058 3057 3055 3054 3053 3052 3050 3049 3047 3045 3043 3041 3040 3038 3036 3034 3032 3030 3028 3025
3072 3071 3071 3072 3072 3072 3073 3073 3073 3073 3073 3073 3072 3072 3072 3072 3072 3072 3072 3073 3073 3074 3075 3075 3076 3078 3080 3082 3084 3085 3086 3087 3088 3089 3089 3089 3089 3089 3088 3088 3088 3087 3087 3086 3085 3084 3082 3080 3078 3076 3074 3073 3072 3070 3069 3068 3067 3066 3064 3063 3061 3060 3058 3056 3056 3056 3054 3052 3051 3050 3049 3047 3046 3044 3042 3041 3039 3037 3035 3034 3032 3030 3028 3026 3024
3068 3067 3068 3068 3068 3069 3069 3069 3069 3069 3069 3069 3069 3069 3069 3069 3069 3070 3070 3070 3071 3072 3073 3074 3076 3077 3079 3080 3082 3083 3084 3085 3085 3085 3086 3086 3085 3085 3085 3085 3084 3083 3083 3082 3081 3079 3077 3075 3074 3072 3071 3070 3069 3068 3067 3066 3065 3063 3061 3060 3059 3057 3055 3054 3053 3053 3052 3050 3049 3048 3046 3044 3043 3041 3040 3038 3036 3035 3033 3032 3030 3028 3026 3024 3022
3065 3065 3065 3065 3065 3065 3066 3065 3065 3065 3065 3065 3066 3066 3066 3066 3067 3068 3068 3069 3069 3070 3072 3074 3075 3076 3077 3078 3079 3080 3081 3081 3082 3082 3082 3082 3082 3082 3081 3081 3080 3079 3078 3078 3077 3075 3073 3072 3070 3069 3068 3066 3065 3065 3063 3062 3061 3060 3059 3057 3056 3054 3053 3052 3051 3051 3050 3048 3046 3045 3043 3042 3040 3039 3037 3036 3034 3033 3031 3030 3028 3026 3024 3022 3020
3062 3062 3062 3062 3062 3062 3062 3062 3062 3062 3063 3063 3063 3064 3064 3064 3065 3066 3067 3068 3068 3070 3071 3073 3073 3074 3075 3076 3077 3078 3078 3078 3078 3078 3078 3078 3078 3078 3078 3077 3076 3075 3074 3073 3072 3071 3070 3068 3066 3065 3064 3063 3062 3061 3060 3059 3057 3056 3055 3054 3053 3052 3051 3050 3049 3048 3046 3045 3043 3042 3040 3039 3038 3036 3035 3034 3032 3031 3030 3028 3026 3025 3023 3020 3018
3059 3059 3059 3059 3060 3059 3059 3059 3059 3060 3060 3061 3061 3062 3062 3063 3064 3065 3066 3067 3067 3069 3070 3071 3072 3072 3073 3073 3074 3074 3074 3074 3074 3074 3074 3074 3074 3074 3074 3073 3071 3070 3069 3068 3067 3067 3066 3064 3063 3061 3060 3059 3058 3057 3056 3055 3054 3053 3052 3051 3050 3049 3048 3047 3046 3044 3043 3042 3041 3039 3038 3037 3036 3035 3033 3032 3031 3029 3028 3026 3025 3023 3021 3018 3016
3056 3056 3056 3057 3057 3057 3057 3057 3057 3058 3059 3059 3060 3061 3061 3062 3063 3063 3064 3065 3066 3067 3068 3069 3069 3070 3070 3070 3070 3070 3070 3070 3070 3070 3070 3071 3070 3070 3070 3069 3068 3066 3064 3063 3062 3062 3061 3060 3059 3058 3056 3055 3054 3053 3052 3052 3050 3049 3048 3048 3047 3046 3045 3044 3043 3042 3040 3039 3038 3037 3036 3035 3034 3033 3032 3030 3029 3028 3026 3024 3023 3021 3019 3017 3015
3053 3053 3054 3054 3055 3056 3055 3056 3056 3057 3057 3058 3058 3059 3060 3061 3061 3062 3062 3062 3063 3064 3065 3066 3066 3066 3066 3066 3066 3066 3066 3066 3066 3066 3066 3066 3066 3066 3066 3065 3064 3062 3061 3059 3058 3058 3057 3056 3055 3054 3053 3052 3051 3050 3049 3048 3047 3046 3045 3044 3044 3043 3043 3042 3041 3039 3038 3037 3036 3035 3034 3033 3032 3031 3030 3029 3028 3026 3024 3023 3021 3019 3017 3015 3013
3050 3051 3051 3052 3053 3054 3054 3054 3055 3055 3056 3056 3057 3057 3058 3059 3059 3059 3059 3059 3060 3060 3061 3062 3062 3062 3062 3062 3063 3063 3063 3062 3062 3062 3062 3062 3063 3062 3062 3061 3060 3058 3057 3057 3056 3055 3054 3053 3052 3051 3050 3049 3048 3047 3046 3045 3044 3044 3043 3042 3041 3040 3040 3039 3038 3037 3036 3035 3034 3033 3032 3032 3031 3030 3029 3027 3026 3024 3022 3021 3019 3017 3015 3014 3012
3048 3049 3049 3050 3051 3052 3052 3052 3053 3053 3054 3055 3055 3055 3056 3057 3057 3057 3057 3057 3058 3058 3057 3058 3058 3058 3058 3059 3060 3060 3059 3059 3058 3058 3058 3058 3059 3058 3058 3057 3056 3055 3053 3053 3052 3052 3051 3049 3048 3048 3047 3046 3045 3044 3043 3043 3042 3041 3040 3040 3039 3038 3037 3036 3035 3034 3034 3033 3032 3031 3031 3030 3029 3028 3027 3026 3024 3022 3021 3019 3017 3016 3014 3012 3010
3046 3046 3047 3048 3049 3049 3050 3050 3051 3051 3052 3053 3053 3054 3054 3055 3055 3055 3055 3055 3056 3056 3055 3055 3055 3055 3055 3056 3057 3057 3057 3056 3055 3054 3054 3054 3054 3054 3053 3053 3052 3051 3050 3049 3048 3048 3048 3046 3045 3045 3043 3043 3042 3041 3041 3040 3039 3038 3037 3037 3036 3036 3035 3034 3033 3032 3032 3031 3030 3030 3029 3029 3028 3027 3025 3024 3022 3021 3019 3017 3016 3014 3013 3011 3009
3045 3045 3045 3046 3046 3047 3047 3047 3049 3050 3050 3051 3051 3051 3052 3053 3053 3053 3053 3053 3053 3053 3053 3052 3052 3052 3052 3053 3053 3054 3054 3054 3053 3052 3051 3051 3050 3050 3049 3049 3049 3048 3047 3046 3045 3045 3044 3044 3043 3042 3041 3040 3039 3039 3038 3037 3036 3036 3035 3034 3034 3033 3032 3031 3031 3030 3030 3029 3029 3028 3028 3027 3026 3025 3024 3022 3021 3019 3018 3016 3015 3013 3011 3010 3008
3043 3043 3043 3043 3044 3044 3044 3045 3046 3047 3047 3048 3048 3048 3049 3050 3050 3050 3050 3050 3050 3050 3050 3049 3049 3049 3050 3050 3050 3050 3050 3050 3050 3049 3048 3048 3047 3047 3046 3046 3045 3045 3044 3043 3042 3041 3041 3040 3040 3039 3038 3038 3037 3036 3036 3034 3034 3033 3032 3031 3031 3030 3030 3029 3029 3028 3028 3028 3027 3027 3026 3026 3025 3024 3022 3021 3020 3018 3017 3015 3014 3012 3010 3009 3007
3040 3041 3041 3041 3042 3042 3042 3043 3044 3044 3044 3045 3045 3045 3046 3046 3046 3047 3047 3047 3047 3047 3047 3047 3045 3045 3046 3047 3047 3047 3047 3047 3046 3046 3045 3045 3044 3044 3043 3042 3042 3041 3041 3040 3039 3038 3038 3037 3037 3036 3036 3035 3035 3034 3033 3032 3031 3030 3029 3029 3028 3028 3028 3027 3027 3027 3027 3026 3026 3025 3025 3024 3023 3022 3021 3020 3019 3017 3016 3014 3013 3011 3010 3008 3006
3038 3038 3038 3039 3039 3040 3040 3040 3041 3041 3042 3042 3042 3043 3043 3043 3043 3044 3044 3044 3044 3044 3044 3044 3043 3043 3043 3044 3044 3044 3044 3044 3043 3042 3042 3042 3041 3041 3040 3039 3038 3038 3038 3037 3036 3036 3035 3035 3034 3034 3033 3032 3032 3031 3030 3029 3029 3028 3027 3027 3026 3026 3026 3026 3025 3025 3025 3025 3025 3024 3024 3023 3022 3021 3020 3019 3018 3016 3015 3013 3012 3010 3009 3007 3006
3036 3036 3036 3036 3037 3037 3037 3037 3038 3039 3039 3039 3039 3040 3041 3041 3041 3041 3041 3041 3042 3042 3042 3041 3040 3040 3040 3040 3040 3040 3040 3040 3040 3039 3039 3039 3038 3038 3037 3035 3034 3035 3035 3034 3033 3033 3033 3032 3032 3031 3031 3030 3029 3028 3028 3027 3026 3026 3025 3025 3024 3024 3024 3024 3024 3024 3024 3023 3023 3023 3022 3022 3021 3020 3019 3018 3017 3016 3014 3013 3011 3010 3008 3007 3005
3034 3034 3034 3034 3034 3034 3034 3034 3035 3036 3036 3036 3036 3037 3038 3038 3038 3038 3038 3039 3039 3039 3039 3039 3038 3037 3037 3037 3037 3037 3037 3037 3037 3036 3036 3035 3035 3034 3034 3032 3031 3031 3031 3030 3030 3029 3029 3029 3029 3028 3028 3027 3026 3025 3025 3024 3024 3023 3023 3023 3023 3023 3022 3022 3022 3022 3022 3022 3022 3022 3021 3020 3020 3019 3018 3017 3016 3015 3013 3012 3011 3009 3008 3007 3005
3031 3031 3031 3031 3031 3031 3031 3032 3033 3033 3033 3033 3033 3034 3035 3035 3035 3035 3035 3036 3036 3036 3036 3036 3035 3034 3034 3033 3033 3033 3033 3033 3033 3033 3033 3032 3031 3031 3030 3029 3029 3028 3027 3026 3026 3026 3026 3026 3025 3025 3025 3024 3023 3023 3022 3022 3021 3021 3021 3021 3021 3021 3021 3021 3021 3021 3021 3021 3021 3020 3020 3019 3019 3018 3017 3016 3015 3014 3013 3012 3010 3009 3008 3006 3005
3028 3028 3029 3029 3028 3028 3029 3030 3031 3031 3031 3031 3031 3031 3032 3032 3032 3032 3032 3032 3032 3033 3033 3033 3032 3031 3031 3030 3030 3030 3029 3029 3029 3029 3029 3029 3028 3027 3027 3026 3026 3025 3024 3023 3023 3023 3023 3022 3022 3022 3022 3021 3021 3020 3020 3019 3019 3019 3019 3019 3019 3019 3019 3019 3019 3019 3019 3019 3019 3019 3018 3018 3017 3017 3016 3015 3014 3013 3012 3011 3010 3009 3007 3006 3005
3025 3026 3026 3026 3026 3027 3027 3028 3029 3029 3028 3028 3028 3028 3028 3029 3029 3029 3029 3028 3029 3029 3029 3029 3028 3028 3028 3027 3027 3027 3027 3026 3026 3026 3026 3026 3025 3024 3023 3023 3022 3022 3022 3021 3020 3020 3020 3020 3020 3019 3019 3018 3018 3018 3017 3017 3016 3016 3017 3017 3017 3017 3017 3017 3017 3017 3018 3017 3017 3017 3017 3016 3016 3015 3015 3014 3013 3012 3012 3011 3010 3008 3007 3006 3005
3023 3023 3023 3024 3025 3025 3025 3026 3026 3026 3026 3026 3025 3025 3025 3025 3026 3026 3026 3026 3026 3026 3026 3026 3026 3026 3025 3025 3025 3025 3024 3024 3024 3023 3023 3023 3022 3022 3021 3020 3019 3019 3020 3019 3019 3018 3018 3017 3017 3017 3016 3016 3015 3015 3015 3014 3014 3014 3014 3014 3014 3015 3015 3015 3016 3016 3016 3016 3016 3016 3015 3015 3015 3014 3014 3013 3012 3012 3011 3010 3009 3008 3007 3006 3005